Location: Phuket
(7.8830°N, 98.4000°E)
Time: 15:37:53
(UTC+07:00)

ISS - Visible Passes

Search period start: 20 November 2018 00:00
Search period end: 30 November 2018 00:00
Orbit: 401 x 408 km, 51.6° (Epoch: 20 November)

Date Brightness Start Highest point End Pass type
(mag) Time Alt. Az. Time Alt. Az. Time Alt. Az.
20 Nov -2.8 05:15:57 18° NNW 05:18:01 43° NE 05:21:09 10° SE visible
20 Nov -2.7 18:28:38 10° SW 18:31:45 43° NW 18:34:51 10° NNE visible
21 Nov -1.0 04:26:41 16° ENE 04:26:41 16° ENE 04:28:08 10° E visible
22 Nov -3.2 05:10:05 38° WSW 05:10:10 38° SW 05:13:15 10° SSE visible
23 Nov -0.8 04:20:44 15° SE 04:20:44 15° SE 04:21:20 10° SE visible
